[[{"header":{"parameterUnit":"m.s-1","parameterCategory":1,"la1":30.2991,"la2":30.254,"lo1":-89.0895,"lo2":-89.0444,"dy":0.0017,"dx":0.0017,"nx":28,"ny":28,"refTime":"2025-07-18T09:00:00:Z","depth":0,"parameterNumber":2,"parameterNumberName":"U-component_of_WINDS"},"data":[0,0,0,0,0,0,0,0,0,0,0,0,0,0,0,0,0,0,0,0,0,0,0,0,0,0,0,0,0,0,0,0,0,0,0,0,0,0,0,0,0,0,0,0,0,0,0,0,0,0,0,0,0,0,0,0,0,0,1.5792,1.5792,0,1.5839,1.5839,1.584,1.5807,1.5806,1.5805,1.5803,1.5854,1.5857,1.5859,0,0,0,0,0,0,0,0,0,0,0,0,0,1.5675,1.5677,1.5792,1.5792,1.5793,1.5839,1.584,1.584,1.5808,1.5806,1.5804,1.5802,1.5853,1.5856,1.586,0,0,0,0,0,0,0,0,0,0,0,0,0,1.5724,1.5678,1.5792,1.5782,1.5782,1.5839,1.584,1.584,1.5808,1.5806,1.5804,1.5802,1.5852,1.5856,1.586,1.593,0,0,1.5873,1.5874,0,0,0,0,0,0,0,0,1.5722,1.5729,1.5783,1.5783,1.5783,1.5815,1.5817,1.587,1.5809,1.5798,1.5803,1.5801,1.5843,1.5848,1.5861,1.5932,1.5934,1.5873,1.5875,1.5877,1.5878,0,0,0,0,0,0,0,1.5718,1.5726,1.5811,1.5784,1.5784,1.5776,1.5781,1.5827,1.5833,1.5799,1.5797,1.5803,1.5842,1.5858,1.5862,1.5935,1.5873,1.5876,1.5879,1.5881,1.6061,1.6064,0,0,0,0,0,0,1.5715,1.5724,1.5809,1.5812,1.5746,1.578,1.5785,1.5807,1.5832,1.5834,1.5804,1.5801,1.5852,1.5858,1.5864,1.5944,1.5877,1.5881,1.5883,1.6059,1.6062,1.6065,0,0,0,0,0,0,1.5713,1.5723,1.5807,1.5767,1.5777,1.5784,1.5809,1.5809,1.5824,1.5836,1.5837,1.5819,1.585,1.5858,1.5913,1.5946,1.5883,1.5886,1.6056,1.606,1.6063,1.6107,0,0,0,0,0,0,1.571,1.5723,1.5749,1.5768,1.578,1.5855,1.5811,1.5812,1.5831,1.5827,1.585,1.5851,1.5849,1.5907,1.5917,1.595,1.589,1.6053,1.6058,1.6062,1.6102,1.6111,1.6119,0,0,0,0,0,1.5706,1.5761,1.575,1.5761,1.5813,1.5857,1.5863,1.5859,1.5834,1.586,1.5867,1.5851,1.5941,1.5912,1.5923,1.5959,1.6051,1.6057,1.6062,1.6099,1.611,1.6119,0,0,0,0,0,0,1.5747,1.5763,1.5752,1.5815,1.5834,1.5851,1.5884,1.5871,1.5899,1.5894,1.5888,1.5894,1.595,1.596,1.5928,1.6026,1.5992,1.6,1.6016,1.6027,1.6035,1.603,1.5893,0,0,0,0,0,1.5763,1.5797,1.581,1.5864,1.5874,1.5877,1.5897,1.5891,1.5912,1.592,1.5932,1.5953,1.5985,1.6007,1.6038,1.6105,1.6108,1.6134,1.6142,1.6149,1.6155,1.6188,1.6199,1.6082,1.6082,1.6082,0,0,1.5797,1.581,1.5832,1.5872,1.5887,1.5921,1.5885,1.5924,1.5949,1.5926,1.5977,1.5986,1.6009,1.6069,1.6096,1.6079,1.6189,1.6156,1.6161,1.6164,1.6195,1.6206,1.6216,1.6086,1.6085,1.6084,0,0,1.5876,1.589,1.5935,1.595,1.5972,1.5973,1.5984,1.6003,1.6007,1.6058,1.604,1.6072,1.6129,1.6145,1.6161,1.6244,1.6229,1.6255,1.6297,1.633,1.6339,1.6347,1.6374,1.6384,1.6261,1.6262,1.6262,0,1.5915,1.5966,1.596,1.5999,1.6017,1.5996,1.6041,1.6056,1.6088,1.61,1.6081,1.6151,1.6166,1.6227,1.6247,1.6262,1.6273,1.6251,1.6338,1.6346,1.6353,1.6379,1.6389,1.6264,1.6264,1.6264,1.6263,0,1.6012,1.6048,1.6082,1.611,1.6132,1.6174,1.6174,1.6197,1.619,1.6193,1.6244,1.626,1.6293,1.6308,1.6302,1.6368,1.6357,1.6339,1.6304,1.6367,1.6391,1.6401,1.6268,1.6267,1.6266,1.6266,0,0,1.6118,1.6141,1.6153,1.6164,1.6187,1.6214,1.6255,1.6286,1.6304,1.6327,1.636,1.6408,1.639,1.6408,1.6404,1.6433,1.6494,1.641,1.641,1.6422,1.6564,1.6576,1.6587,1.6485,1.6487,1.6488,1.6561,0,1.6195,1.6265,1.6259,1.6325,1.6357,1.6337,1.6373,1.639,1.6394,1.6422,1.6428,1.646,1.6436,1.6446,1.6474,1.648,1.6522,1.6476,1.6514,1.6515,1.6506,1.66,1.6613,1.6682,1.6571,1.6573,1.6574,0,1.6295,1.6318,1.6386,1.6401,1.6414,1.6446,1.6472,1.6499,1.6518,1.6519,1.6538,1.6529,1.657,1.6536,1.6591,1.656,1.6575,1.6581,1.6584,1.6585,1.6546,1.6602,1.6704,1.6713,1.6589,1.6588,1.6587,0,1.6361,1.641,1.6456,1.6467,1.6486,1.6508,1.6518,1.6534,1.6552,1.6576,1.6587,1.6616,1.6631,1.6654,1.6652,1.6628,1.6707,1.6674,1.6708,1.6708,1.6724,1.6722,1.6827,1.6739,1.6739,1.6738,1.6738,0,1.6446,1.6488,1.6485,1.6513,1.6559,1.6553,1.6599,1.6606,1.662,1.6649,1.6636,1.6663,1.6661,1.6689,1.6689,1.6733,1.6741,1.6742,1.6741,1.6741,1.6741,1.675,1.6744,1.6741,1.674,1.674,1.6739,0,1.6527,1.6527,1.6575,1.6589,1.6593,1.6626,1.6638,1.6664,1.6667,1.6704,1.6712,1.6717,1.6749,1.675,1.6788,1.6787,1.684,1.6835,1.6833,1.6831,1.6863,1.6859,1.6975,1.6989,1.6895,1.6896,1.6897,0,1.658,1.6611,1.6627,1.6644,1.6654,1.6684,1.6701,1.6696,1.6715,1.6738,1.6761,1.6792,1.6815,1.6867,1.6874,1.6902,1.6896,1.6935,1.69,1.6899,1.6893,1.689,1.6892,1.6941,1.6942,1.6943,1.6944,0,1.6673,1.667,1.6696,1.672,1.6741,1.6761,1.6779,1.6794,1.6792,1.6814,1.6845,1.6863,1.69,1.693,1.6957,1.6966,1.6954,1.6955,1.6963,1.6963,1.6959,1.6958,1.6848,1.6951,1.6951,1.695,1.695,1.6949,1.6739,1.6764,1.6779,1.6807,1.6819,1.6836,1.686,1.6866,1.6892,1.692,1.6916,1.6951,1.6967,1.7002,1.7014,1.7041,1.7027,1.7041,1.7044,1.7046,1.7048,1.6957,1.7046,1.7046,1.7046,1.7046,1.7045,0,1.6828,1.6836,1.6862,1.6886,1.6908,1.6894,1.6913,1.6932,1.6962,1.6978,1.7001,1.7036,1.7064,1.7073,1.7101,1.712,1.7115,1.7127,1.7124,1.7126,1.706,1.7048,1.7131,1.7131,1.7131,1.7131,1.7131,1.713,1.6877,1.6919,1.6918,1.6965,1.6973,1.7005,1.7017,1.7032,1.7045,1.7084,1.7106,1.7112,1.7125,1.7152,1.7177,1.7179,1.7189,1.7203,1.7202,1.714,1.7131,1.7123,1.7112,1.7206,1.7206,1.7266,1.7266,1.7267]},{"header":{"parameterUnit":"m.s-1","parameterCategory":1,"la1":30.2991,"la2":30.254,"lo1":-89.0895,"lo2":-89.0444,"dy":0.0017,"dx":0.0017,"nx":28,"ny":28,"refTime":"2025-07-18T09:00:00:Z","depth":0,"parameterNumber":3,"parameterNumberName":"V-component_of_WINDS"},"data":[0,0,0,0,0,0,0,0,0,0,0,0,0,0,0,0,0,0,0,0,0,0,0,0,0,0,0,0,0,0,0,0,0,0,0,0,0,0,0,0,0,0,0,0,0,0,0,0,0,0,0,0,0,0,0,0,0,0,0.8403,0.8403,0,0.848,0.8481,0.8481,0.8449,0.8447,0.8445,0.8443,0.8527,0.8531,0.8535,0,0,0,0,0,0,0,0,0,0,0,0,0,0.8231,0.8234,0.8403,0.8404,0.8404,0.8479,0.8481,0.8482,0.8449,0.8447,0.8445,0.8442,0.8526,0.853,0.8535,0,0,0,0,0,0,0,0,0,0,0,0,0,0.8307,0.8235,0.8402,0.8397,0.8397,0.8479,0.8481,0.8482,0.845,0.8447,0.8444,0.8441,0.8524,0.853,0.8536,0.8629,0,0,0.8554,0.8556,0,0,0,0,0,0,0,0,0.8302,0.8313,0.8397,0.8398,0.8398,0.8452,0.8451,0.8531,0.845,0.843,0.8443,0.844,0.8504,0.8512,0.8533,0.8632,0.8636,0.8554,0.8558,0.8561,0.8562,0,0,0,0,0,0,0,0.8297,0.831,0.8433,0.8398,0.8399,0.8392,0.84,0.8466,0.8482,0.8432,0.8429,0.8439,0.8504,0.8527,0.8534,0.8637,0.8554,0.8559,0.8563,0.8565,0.8817,0.882,0,0,0,0,0,0,0.8291,0.8305,0.8431,0.8435,0.8342,0.8398,0.8406,0.8437,0.8481,0.8485,0.8441,0.8437,0.8518,0.8527,0.8537,0.8649,0.856,0.8566,0.8569,0.8814,0.8818,0.8821,0,0,0,0,0,0,0.8288,0.8303,0.8428,0.837,0.8385,0.8403,0.8439,0.844,0.8463,0.8488,0.8492,0.8461,0.8516,0.8529,0.8606,0.8652,0.8569,0.8574,0.881,0.8815,0.882,0.8874,0,0,0,0,0,0,0.8283,0.8302,0.8337,0.8371,0.8388,0.8494,0.8442,0.8444,0.8473,0.8468,0.8508,0.8512,0.8515,0.8597,0.8612,0.8658,0.8579,0.8806,0.8813,0.8818,0.8868,0.888,0.889,0,0,0,0,0,0.8277,0.835,0.8338,0.8354,0.8432,0.8497,0.8507,0.8508,0.8477,0.8512,0.8528,0.8511,0.8644,0.8605,0.8621,0.867,0.8804,0.8811,0.8818,0.8863,0.8877,0.8889,0,0,0,0,0,0,0.8323,0.8354,0.8342,0.8428,0.846,0.8491,0.8536,0.8523,0.8566,0.856,0.856,0.8569,0.8649,0.8667,0.8624,0.8763,0.8719,0.873,0.8748,0.8762,0.8772,0.8767,0.8584,0,0,0,0,0,0.8342,0.8391,0.8416,0.849,0.8506,0.8518,0.8547,0.8544,0.8578,0.8592,0.8613,0.8648,0.8697,0.873,0.8777,0.887,0.8878,0.8911,0.8922,0.8931,0.8941,0.8991,0.9007,0.8844,0.8844,0.8844,0,0,0.8384,0.8407,0.8438,0.8499,0.8524,0.8575,0.853,0.8587,0.8625,0.8601,0.8675,0.8692,0.873,0.8815,0.8854,0.8833,0.8987,0.894,0.8947,0.8952,0.9,0.9016,0.9029,0.8849,0.8848,0.8847,0,0,0.8487,0.8509,0.8572,0.8597,0.8634,0.8641,0.8656,0.869,0.87,0.8773,0.8756,0.8802,0.8887,0.8915,0.8941,0.9053,0.9038,0.9068,0.9126,0.9175,0.9188,0.9199,0.924,0.9255,0.9077,0.9077,0.9077,0,0.8535,0.8611,0.8607,0.8665,0.8692,0.867,0.8735,0.876,0.8811,0.8831,0.8806,0.8912,0.8936,0.9028,0.9055,0.9076,0.9094,0.9064,0.9186,0.9197,0.9208,0.9247,0.9262,0.9081,0.908,0.908,0.908,0,0.8668,0.8721,0.8768,0.8816,0.8848,0.891,0.8916,0.895,0.8944,0.8955,0.903,0.9058,0.911,0.9131,0.9127,0.9223,0.9208,0.9185,0.9141,0.9227,0.9264,0.9279,0.9086,0.9084,0.9083,0.9083,0,0,0.8804,0.8847,0.8865,0.8886,0.8924,0.8966,0.9026,0.9075,0.9104,0.914,0.9191,0.9263,0.9241,0.927,0.9268,0.9311,0.9399,0.9282,0.9283,0.9304,0.9507,0.9526,0.9543,0.9389,0.9391,0.9394,0.9504,0,0.8911,0.9015,0.9013,0.911,0.9159,0.9137,0.919,0.922,0.9231,0.9275,0.9287,0.9338,0.9305,0.9322,0.9364,0.938,0.944,0.9371,0.9438,0.9441,0.9431,0.9562,0.9583,0.9686,0.9519,0.9521,0.9523,0,0.905,0.9088,0.9189,0.9219,0.924,0.9287,0.9332,0.9374,0.9407,0.9412,0.9443,0.9435,0.9497,0.945,0.9536,0.949,0.9517,0.9529,0.9533,0.9541,0.9488,0.9576,0.9719,0.9735,0.9545,0.9543,0.9542,0,0.914,0.9217,0.9287,0.9306,0.9343,0.9376,0.9394,0.9424,0.9453,0.9493,0.9512,0.9559,0.9585,0.9622,0.9626,0.9592,0.9714,0.9667,0.9721,0.9721,0.975,0.9748,0.9901,0.9764,0.9764,0.9764,0.9763,0,0.9261,0.9324,0.9328,0.9372,0.9442,0.9439,0.951,0.9524,0.9551,0.9598,0.9582,0.9627,0.9629,0.9675,0.9679,0.9751,0.9763,0.9769,0.977,0.9772,0.9771,0.9791,0.9785,0.9768,0.9767,0.9766,0.9765,0,0.9375,0.938,0.9456,0.9483,0.9491,0.9542,0.9567,0.9609,0.9617,0.9677,0.9691,0.9705,0.9758,0.9766,0.9829,0.9831,0.9918,0.991,0.9907,0.9906,0.996,0.9956,1.0133,1.0156,1.0003,1.0004,1.0005,0,0.9452,0.95,0.9532,0.9561,0.958,0.9627,0.9657,0.9655,0.9687,0.9728,0.9766,0.9817,0.9858,0.9945,0.9962,1.001,1.0005,1.0063,1.0012,1.0012,1.0007,1.0005,1.0011,1.0074,1.0075,1.0077,1.0078,0,0.9589,0.9589,0.9631,0.9674,0.971,0.9744,0.9777,0.9802,0.9805,0.9841,0.9895,0.9926,0.999,1.0042,1.0089,1.0108,1.0095,1.0093,1.0109,1.0112,1.0109,1.0113,0.9935,1.009,1.0089,1.0088,1.0087,1.0087,0.9688,0.973,0.9759,0.9806,0.983,0.986,0.9901,0.9914,0.9958,1.0008,1.0004,1.0064,1.0096,1.0158,1.018,1.0227,1.0208,1.023,1.0236,1.0242,1.0248,1.0099,1.0235,1.0235,1.0235,1.0235,1.0234,0,0.9826,0.9843,0.9886,0.9931,0.9969,0.9949,0.9984,1.0018,1.0069,1.0099,1.0139,1.0201,1.0251,1.0271,1.032,1.0354,1.0349,1.0367,1.0366,1.0371,1.0261,1.0244,1.0371,1.0371,1.0371,1.0371,1.037,1.037,0.9902,0.9971,0.9974,1.0056,1.0072,1.0129,1.0151,1.0179,1.0203,1.0272,1.0312,1.0324,1.035,1.0401,1.0446,1.0451,1.0471,1.0492,1.0494,1.0392,1.0378,1.0365,1.0349,1.0496,1.0496,1.06,1.0601,1.0602]}]]